THORAD AGENA D DEB, 42532

Orbit data source: Space-Track

THORAD AGENA D DEB, 42532 is space debris in SSO originally from a launch on Wed, 08 Apr 1970 UTC launched from the Air Force Western Test Range (AFWTR). Debris objects in space refer to the collection of defunct objects orbiting the Earth. Examples of debris include non-operational satellites, rocket bodies, and fragments generated from explosions, collisions, or faulty payload assembly.

Loading next visibility...
Identifier
42532, 1970-025SN
Orbit
SSO
Country
Flag of USUS
Related business
Manufacturer
Unknown
Mission
Spacecraft
Bus & Motor
Unknown
Mass
Unknown
Launch date (UTC)
1970-04-08 (56 years ago)
Launch vehicle
Unknown
Launch site
Air Force Western Test Range (AFWTR)
Object type
Payload
Rocket body
Debris
Shape & HBR
Unknown shape, 0.1 m
Radar Cross Section
Small (<0.1 m²)

Expand to show TLE details & history
Last TLE update: 14 hours ago

TLE from 14 hours ago
0 THORAD AGENA D DEB
1 42532U 70025SN  25295.72656483  .00002999  00000-0  20081-2 0  9996
2 42532  99.9275 210.8751 0002646 348.0518  12.0581 14.01767452606398
Epoch: 2025-10-22T17:26Z
TLE epoch observation values (Epoch: 2025-10-22T17:26:15.201Z)
Latitude
-0.00003°
Longitude
-82.08426°
Altitude
888.649 km
Speed
7.409 km/s
True Right ascension
14h 03m 30s
True Declination
0° 00' 00"
Sunlit
Object was in daylight at epoch
Visualization orbit readout
Latitude
Unknown
Longitude
Unknown
Altitude
Unknown
Speed
Unknown
Apparent Right ascension
Unknown
Apparent Declination
Unknown
Sunlit
N/A
Visualization observer readout
Local Sidereal Time
02:06:47
Azimuth
Unknown
Elevation
Unknown
Doppler factor
Unknown
Orbital elements
Apogee altitude
886.848 km
Perigee altitude
883.004 km
Semi-major axis
7,263.063 km
Eccentricity
0.00026
Inclination
99.9275°
RAAN
210.8751°
Arg. of periapsis
348.0518°
True anomaly
12.06444°
Mean anomaly
12.0581°
Eccentric anomaly
12.06127°
Mean motion
3.50642 °/min
Orbital period
102.67 mins
BSTAR
0.0020081

Documentation

Showing up to 5 results
|